RH
66 69 76 74 72 73 73 71 71 73 75 75 75 74 73 72 71 70 70 69 65 60 56 52 48 45 42 40 38 36 32 29 27 27 27 27 27 27 27 27 26 24 22 20 19 18 18 18 18 17 17 18 18 17 16 15 16 15 15 14 14 16 18 18 19 19 17 16 15 16 17 19 20 20 20 23 27 32 35 34 33 35 37 40 41
73 74 77 75 73 75 75 71 72 76 77 77 76 74 74 75 74 73 74 76 75 72 69 64 60 56 52 48 44 42 39 35 32 29 27 27 28 27 28 28 28 27 26 25 23 22 21 20 20 20 20 21 21 20 19 19 19 19 18 17 16 17 18 19 20 20 19 17 16 17 17 19 20 21 26 32 36 36 36 35 36 38 40 41 42
80 81 81 77 73 75 75 70 71 76 77 76 75 74 72 72 72 71 71 73 76 76 77 75 71 67 64 60 55 49 45 42 39 36 32 29 29 30 29 29 28 28 27 27 26 25 24 22 21 21 20 20 20 20 20 20 21 21 21 21 20 19 19 19 19 20 20 19 20 20 20 21 22 25 31 39 42 40 38 38 38 39 40 40 40
81 82 82 77 73 74 75 71 71 73 72 71 71 70 69 68 68 67 66 68 69 69 73 78 80 77 75 74 70 66 60 53 46 43 41 39 36 34 32 31 30 29 28 27 27 26 26 24 23 22 21 21 20 19 19 18 18 18 19 19 19 19 19 19 19 19 20 20 20 21 22 24 26 29 34 39 42 41 40 40 40 40 39 38 38
70 71 71 68 66 67 68 68 67 66 66 66 66 65 65 65 66 66 66 67 67 67 69 72 75 77 79 80 80 80 78 73 65 57 52 52 51 47 43 39 37 36 35 33 31 31 30 29 27 26 24 23 23 22 20 19 17 17 17 17 17 18 18 19 19 20 20 20 21 22 23 27 34 38 40 42 42 40 40 41 42 42 40 40 39
63 62 59 57 57 56 57 58 58 58 58 60 61 62 64 64 65 66 67 67 68 68 68 69 70 72 75 78 78 78 78 79 79 73 67 68 68 65 61 54 49 47 47 44 42 42 40 38 36 35 32 29 28 27 26 25 22 20 19 19 18 17 17 17 18 19 19 20 21 22 23 28 36 40 44 47 48 45 44 44 44 44 44 44 43
58 56 55 54 53 52 51 52 52 53 54 55 58 60 62 63 64 66 67 68 67 67 68 68 70 74 76 77 78 77 75 76 78 78 79 79 78 76 74 69 63 59 55 52 51 51 49 48 46 43 42 39 36 35 35 34 33 31 29 28 27 25 24 24 23 22 23 24 25 26 28 31 36 40 43 48 52 52 50 49 48 48 48 51 53
54 53 53 54 55 55 54 54 53 53 53 54 56 57 58 60 62 63 66 67 66 68 70 70 73 78 78 77 79 80 80 80 82 83 84 83 81 78 78 77 74 71 66 61 58 55 53 53 53 51 50 47 43 42 41 40 40 40 41 41 41 40 39 37 36 34 35 36 37 37 37 38 41 46 50 52 56 59 57 55 52 49 48 52 56
55 55 54 55 55 57 58 59 59 58 58 58 60 60 61 61 60 60 64 66 66 66 68 70 76 78 76 75 77 78 80 83 84 83 84 85 84 82 81 82 81 80 76 71 67 62 59 57 57 57 57 55 52 50 48 47 45 44 45 45 46 46 46 45 44 43 43 46 47 49 52 53 51 53 61 64 66 71 73 68 60 52 48 49 49
59 59 59 59 58 58 59 61 62 62 64 65 66 66 65 65 63 62 65 68 69 68 68 69 71 72 73 76 78 78 82 85 83 83 85 84 83 83 82 83 83 82 82 81 78 74 70 65 62 61 61 60 59 58 57 56 55 52 50 48 47 46 45 46 46 45 44 43 43 47 55 59 56 59 69 71 68 77 86 86 78 69 61 56 51
61 62 62 62 61 61 61 61 61 63 65 66 67 67 67 67 67 67 69 71 72 73 73 72 70 71 75 80 81 81 83 85 84 85 84 78 76 78 80 79 78 79 81 83 83 82 79 76 72 68 64 63 63 63 62 62 61 60 60 58 55 52 48 47 48 47 46 43 41 43 46 47 48 52 57 56 55 63 75 82 82 77 72 66 61
63 63 63 64 63 63 63 62 63 66 67 67 67 69 69 70 71 71 72 73 75 76 78 77 75 76 78 81 82 82 82 82 83 84 81 75 73 75 78 78 78 77 77 79 82 82 80 80 79 75 70 67 66 66 66 65 65 65 66 67 67 64 58 55 52 51 51 51 52 54 52 47 47 48 48 48 48 50 53 60 65 68 69 68 65
65 65 65 65 64 64 64 65 66 68 68 67 67 69 69 70 73 73 73 74 76 78 80 79 78 78 79 81 83 83 81 81 81 80 78 75 74 74 75 77 77 77 78 79 81 82 82 82 82 82 79 74 72 71 70 70 70 71 71 70 70 69 67 65 63 60 60 62 62 62 59 56 54 54 54 53 53 53 54 57 60 64 67 66 65
66 66 66 65 65 66 66 67 68 68 69 68 67 67 66 67 69 70 71 72 74 77 78 77 75 77 78 79 83 84 82 80 78 78 77 77 76 75 75 77 79 79 79 79 81 84 83 82 84 87 87 85 83 81 77 74 72 75 78 79 78 75 72 73 72 68 67 68 67 65 66 68 69 70 70 72 74 75 75 74 72 71 70 69 70
63 63 63 62 63 64 65 65 65 65 64 63 63 62 61 60 62 63 65 66 67 69 71 71 71 73 74 75 78 80 80 78 78 79 79 79 79 78 79 82 85 84 82 82 84 86 86 84 85 88 90 89 87 85 82 78 75 76 78 81 83 81 77 77 78 76 73 72 70 70 73 79 83 85 86 88 91 90 87 85 84 82 81 79 79
55 55 55 55 56 56 56 56 56 55 54 53 53 54 53 53 54 55 56 57 59 60 62 64 66 67 67 68 70 72 73 74 76 78 79 80 81 81 82 86 88 87 86 87 87 89 91 89 89 89 90 90 90 88 87 85 83 83 82 82 84 84 81 80 82 84 85 83 82 84 86 87 90 92 90 88 91 93 92 91 90 89 88 87 87
46 46 46 47 49 49 49 49 48 48 47 46 46 46 46 47 47 47 48 50 53 55 56 58 59 59 61 62 63 64 65 65 66 68 70 73 74 75 76 80 82 83 83 85 88 91 94 94 93 93 93 93 93 92 91 89 89 89 89 88 89 88 85 84 85 88 91 92 90 89 91 92 91 90 89 89 92 95 95 94 92 92 93 94 96
39 39 40 40 41 42 41 40 40 40 40 40 41 41 42 42 42 43 45 46 47 49 50 52 53 54 56 57 56 56 56 56 56 56 57 58 59 60 61 64 67 69 71 75 80 86 90 92 92 93 93 93 94 95 96 96 95 95 95 95 95 93 90 91 92 93 95 97 96 93 94 95 92 90 90 93 95 96 96 96 95 95 97 98 100
32 32 32 31 32 33 33 33 33 33 33 34 34 35 37 37 37 38 40 41 41 42 42 43 45 45 46 46 45 44 44 43 43 43 43 43 44 45 45 47 50 52 55 59 64 68 73 75 76 79 82 86 90 94 97 97 97 97 98 97 97 97 95 95 95 96 96 97 98 98 98 97 96 96 97 98 98 98 99 100 98 98 98 99 100
25 25 24 25 25 24 25 27 27 27 27 27 27 27 29 30 30 31 32 33 34 34 34 34 35 36 36 35 34 33 33 33 33 34 34 34 35 35 36 37 38 41 44 47 49 52 55 58 60 63 67 71 76 81 85 87 88 91 94 96 98 99 98 96 96 97 98 98 99 99 99 99 99 99 99 98 98 98 98 99 98 98 99 99 100
22 21 21 21 22 20 19 20 21 21 23 23 22 22 24 25 26 26 26 27 28 28 29 30 30 30 31 30 28 28 28 27 27 28 28 29 29 29 30 30 30 32 36 40 43 45 46 48 50 51 54 56 59 61 64 66 70 73 77 83 89 92 91 91 92 94 96 97 97 97 96 97 97 97 96 96 95 95 96 96 96 96 97 98 99
21 20 19 19 20 19 19 19 18 17 19 21 21 20 21 23 24 24 24 25 25 25 25 25 26 27 27 26 25 25 24 21 20 21 21 22 23 23 23 24 23 24 26 29 32 34 37 39 41 42 43 44 45 45 45 46 47 49 51 55 60 65 68 70 74 78 82 85 86 87 86 88 90 90 91 92 93 94 94 94 94 95 95 96 96
21 20 20 20 19 18 18 20 20 18 18 19 20 21 21 21 22 23 24 24 24 25 24 24 24 24 25 25 24 26 23 19 18 20 19 19 19 20 21 22 22 22 22 23 24 26 28 30 33 35 37 39 40 40 39 39 40 42 43 44 45 46 48 50 53 57 61 64 67 70 72 76 78 80 83 85 88 89 90 90 91 91 91 90 90
21 21 20 20 20 19 18 18 19 19 19 18 18 20 21 21 21 21 21 22 22 23 24 23 23 24 24 24 24 25 24 22 22 23 23 22 20 20 20 21 22 22 22 22 22 22 22 23 26 28 31 33 35 35 36 37 39 41 42 43 43 44 44 46 47 48 49 51 53 56 59 62 65 68 72 75 77 79 80 82 82 82 82 82 81
20 21 21 21 20 21 20 18 18 18 18 18 18 18 19 21 21 21 21 20 21 21 21 22 22 23 23 23 22 23 23 23 24 25 25 25 23 22 21 21 21 21 21 21 20 21 20 20 21 23 24 25 26 27 28 30 32 34 34 35 37 38 39 40 41 42 44 45 47 49 51 52 54 56 58 59 62 64 66 67 69 70 70 70 70
19 20 21 21 20 20 21 20 19 19 17 17 17 16 15 16 18 20 20 21 20 20 19 20 20 20 21 21 22 22 22 21 22 24 26 26 25 25 24 24 23 22 21 21 21 22 22 21 21 21 22 22 22 23 23 24 24 26 27 27 28 30 31 33 34 36 37 39 40 41 43 44 46 48 49 50 50 51 52 53 54 55 56 55 55
18 18 18 19 19 19 19 19 20 21 19 17 17 17 16 14 14 14 15 17 20 21 21 20 20 20 20 20 20 22 23 21 20 22 25 26 25 25 26 26 26 25 24 24 24 26 27 25 23 24 24 24 24 24 24 24 24 24 24 25 26 26 27 29 30 31 33 33 34 36 37 38 40 41 41 41 41 40 40 40 40 42 43 42 42
17 17 17 16 17 18 17 17 17 18 18 19 18 17 17 16 15 13 11 11 14 17 20 22 22 21 21 21 21 23 24 22 19 20 21 22 23 23 24 25 25 25 25 26 26 28 30 29 29 29 28 28 29 28 27 26 26 25 25 25 25 25 27 27 28 29 31 31 32 34 35 36 37 36 34 34 34 33 31 30 30 32 33 33 34
17 17 16 15 15 15 16 16 16 15 16 17 17 16 16 16 16 16 14 12 11 12 15 20 22 22 21 19 19 21 22 19 17 17 18 18 19 21 22 23 24 24 26 27 26 28 30 32 34 35 35 34 33 30 29 29 28 26 26 26 25 25 28 28 28 29 31 31 34 37 36 34 35 36 34 32 32 31 28 27 26 26 28 31 32
16 16 16 15 15 14 14 15 15 15 15 15 16 15 16 16 16 16 15 15 14 13 13 15 16 18 18 17 16 17 18 16 16 16 16 16 18 18 20 23 24 25 26 27 28 31 33 35 38 38 38 37 35 32 30 29 28 27 28 29 28 28 29 29 29 32 34 35 36 38 37 36 36 35 32 29 28 29 29 28 27 26 28 29 29
15 15 15 15 15 15 15 15 15 16 16 16 16 16 16 17 17 17 17 16 16 16 16 15 14 14 15 16 17 18 18 17 17 17 17 19 19 19 21 23 25 27 30 32 33 34 35 39 43 43 41 40 39 38 36 35 36 37 36 35 35 35 33 31 31 32 35 38 37 35 36 36 33 29 26 24 24 25 26 26 28 29 31 33 34
17 16 16 15 14 15 16 16 16 16 16 16 17 17 17 17 18 17 17 17 17 17 18 18 17 15 15 15 16 17 19 19 18 18 19 21 22 22 23 24 26 30 34 38 39 39 41 45 48 45 43 44 45 44 44 45 47 50 48 46 45 44 43 40 39 38 39 40 38 34 33 32 28 23 23 24 23 24 26 28 31 35 39 42 44
19 19 19 18 16 15 17 18 17 17 17 17 17 17 17 17 18 18 17 18 18 19 20 20 19 19 19 19 18 17 18 20 21 20 21 22 24 26 27 26 28 32 38 41 42 42 45 49 49 45 43 46 48 47 48 51 53 54 55 54 53 53 53 51 47 44 43 43 39 36 35 34 31 28 28 28 26 27 30 33 35 37 40 43 45
20 19 19 19 18 18 18 19 18 18 18 18 19 19 18 18 19 19 19 19 20 20 20 21 22 22 21 22 23 22 20 20 22 23 24 24 26 28 30 29 31 36 43 44 44 45 48 49 48 45 45 48 50 50 53 55 55 54 55 55 55 55 58 56 50 47 47 46 45 45 44 42 39 38 38 39 37 35 37 39 39 38 39 37 35
20 20 19 19 19 20 20 19 18 17 19 19 20 21 21 20 20 22 23 23 23 24 24 25 26 27 27 25 25 25 25 24 25 26 27 28 29 31 32 32 34 40 47 48 48 51 53 51 48 46 47 49 51 53 55 56 56 55 55 55 54 55 58 58 54 51 51 50 51 51 49 47 47 47 47 47 45 42 43 45 44 41 40 38 36
21 21 20 20 20 21 21 20 19 18 18 19 21 23 22 21 22 23 24 24 25 30 36 35 30 29 33 33 29 28 30 32 31 29 30 33 33 34 35 35 36 41 48 51 50 51 53 51 48 48 51 53 55 56 57 56 56 55 54 55 55 54 56 56 53 51 51 51 53 54 53 50 51 51 50 49 47 44 45 46 45 43 43 43 41
23 23 23 23 23 23 23 23 21 21 21 21 22 23 23 24 25 25 26 28 29 34 42 44 39 35 39 41 37 34 36 39 36 33 34 37 39 42 42 41 41 42 47 51 53 52 52 53 52 50 51 53 56 57 56 55 56 55 54 55 55 55 55 55 53 52 52 50 51 53 54 52 52 51 51 50 49 47 46 45 43 44 46 45 43
24 24 24 24 24 24 25 25 25 25 24 24 25 25 25 26 27 26 28 31 31 33 39 47 48 46 47 48 46 43 43 45 43 39 37 39 46 54 55 52 50 47 45 46 48 48 49 50 49 48 48 48 49 49 49 50 52 53 52 52 52 52 52 52 52 54 55 54 52 52 52 53 53 51 49 49 49 48 47 46 45 46 48 48 46
28 27 27 27 27 27 28 27 27 28 28 28 29 30 30 30 30 30 30 30 33 39 47 53 55 54 55 58 57 54 54 53 49 44 39 39 47 56 59 58 57 54 48 45 45 45 46 47 46 46 45 43 41 40 40 42 44 45 47 49 49 49 49 48 48 48 49 51 52 51 51 51 51 50 49 49 50 49 48 48 48 48 48 48 47
36 35 35 34 33 34 36 35 33 32 32 33 34 34 35 35 35 35 34 34 38 47 56 60 61 62 63 63 62 61 60 56 49 43 43 44 47 52 56 58 57 54 50 49 50 49 49 49 47 46 44 41 38 37 36 37 38 40 41 43 45 47 49 49 49 49 47 46 46 46 47 49 51 51 51 51 50 50 51 50 49 49 49 48 49
43 43 43 42 40 41 43 43 42 41 40 39 39 39 39 39 40 39 38 38 41 50 58 62 63 63 62 61 60 60 59 54 47 46 50 52 52 54 56 57 56 53 52 53 55 54 52 51 50 48 45 41 39 38 37 37 38 38 38 38 39 41 42 43 44 46 46 45 45 44 46 50 52 53 54 55 54 54 53 52 52 53 52 51 51
47 47 48 47 47 47 47 47 48 50 49 47 46 45 45 44 42 38 37 38 41 47 53 57 59 59 59 59 59 57 55 52 51 53 57 58 57 58 58 58 57 57 56 57 58 56 55 54 54 51 47 44 42 42 40 39 39 38 38 38 38 38 40 41 41 40 40 40 41 42 45 47 47 48 50 54 55 56 58 59 59 59 59 57 56
51 52 53 53 53 54 53 51 51 52 53 52 51 49 48 47 43 37 35 36 38 43 49 55 60 63 63 62 61 60 58 57 57 58 59 60 59 60 61 61 60 59 59 60 60 58 57 58 58 56 51 48 45 45 44 43 42 40 39 38 38 41 43 44 43 42 40 38 37 37 38 40 40 40 42 44 47 51 54 57 59 59 60 60 60
54 57 60 59 57 57 58 57 55 55 56 56 53 49 47 47 44 41 41 43 45 51 58 64 67 70 69 66 64 63 62 60 60 60 62 64 64 64 65 65 64 63 63 63 62 60 59 59 60 59 56 52 48 47 46 45 43 42 41 40 41 45 47 45 43 41 39 37 34 34 37 39 40 41 40 40 40 42 43 44 46 46 47 49 50
59 62 64 63 60 59 60 60 58 58 59 60 58 53 50 49 46 47 50 54 56 59 65 68 70 71 70 67 66 67 67 65 65 65 67 69 70 70 70 69 68 67 67 67 65 63 62 60 60 60 59 57 53 50 48 47 47 47 45 44 46 48 48 46 43 41 37 33 32 32 34 35 35 35 36 38 39 39 38 39 39 38 39 40 41
63 64 63 61 59 59 61 60 58 58 62 64 63 60 58 56 54 54 57 61 63 65 68 70 71 69 65 64 68 72 73 74 73 71 71 72 72 72 72 71 69 69 69 69 69 68 65 63 62 61 60 59 57 53 50 51 52 51 49 48 49 49 47 46 43 39 34 31 30 30 30 30 30 33 36 38 38 38 38 37 37 37 37 37 38
60 58 57 57 57 58 61 61 60 62 66 67 66 66 68 68 65 63 64 66 67 67 66 65 63 60 58 63 72 76 77 77 77 76 75 75 75 74 73 71 71 70 69 70 71 70 67 65 65 64 62 62 60 57 53 53 53 50 49 49 49 48 46 44 42 38 34 32 31 30 30 29 30 33 37 37 37 36 36 35 34 34 35 35 36
48 49 50 52 53 53 53 53 55 61 66 66 65 68 71 71 68 67 68 69 71 68 62 56 54 54 57 66 75 79 79 79 79 79 79 79 78 78 77 76 74 71 68 67 68 67 65 64 63 62 61 61 61 58 56 54 51 50 50 51 51 50 48 46 44 41 37 34 31 31 30 30 32 35 36 36 35 34 34 33 33 33 33 34 34
36 38 40 42 42 42 41 43 49 56 61 61 59 61 65 66 65 65 67 70 72 68 61 57 57 60 64 70 76 79 80 81 80 80 81 81 81 80 78 77 74 70 67 64 63 62 61 59 56 54 54 55 55 55 54 52 49 48 49 50 51 52 51 50 48 46 41 36 32 30 30 32 36 38 37 36 35 34 33 32 33 33 32 32 32
31 32 32 33 33 34 35 38 44 49 52 54 56 59 62 65 65 66 68 71 70 65 62 63 67 68 70 74 78 81 82 83 83 82 83 83 82 80 77 74 72 69 66 63 62 61 59 56 54 52 52 51 51 52 52 49 48 49 51 51 52 52 52 51 50 47 43 39 34 31 32 35 38 38 38 37 36 35 33 32 32 32 31 30 30
33 34 35 37 38 37 36 37 40 44 46 49 52 56 61 67 72 74 74 72 68 62 61 65 71 74 77 80 85 87 86 85 85 85 84 82 81 78 75 72 69 67 64 63 62 60 57 54 53 53 52 51 51 51 51 50 50 52 53 53 53 51 50 49 47 45 42 39 34 32 34 38 39 38 37 38 37 36 35 34 33 32 31 31 30